Location: Chuathbaluk
(61.5726°N, 159.2454°W)
Time: 22:44:01
(UTC+00:00)

Explorer 7 - Pass Details

Date: 13 December 2021
Orbit: 483 x 674 km, 50.3° (Epoch: 21 January)

Event Time Altitude Azimuth Distance (km) Brightness Sun altitude
Exits shadow 15:30:24 17° 160° (SSE) 1,480 9.1 -27.5°
Drops below altitude 10° 15:32:14 10° 136° (SE) 1,849 10.0 -27.3°
Sets 15:34:56 0° 117° (ESE) 2,704 11.3 -26.9°
